Overview Statistics Trail Chart Weather Telemetry Raw packets
 

This is the latest recevied weather packets stored in our database for station/object KF0WJA. If no packets are shown the sender has not sent any weather packets the latest 10 day(s).

<< 86 87 88 89 90 91 92 >>
Time Temp. Humidity Pressure Rain* Wind** Luminosity Snow
1788031921 36.67° C 38% 1016.9 hPa 0 mm - 686 W/m² -
1788031621 36.67° C 38% 1017.1 hPa 0 mm - 692 W/m² -
1788031315 36.67° C 37% 1017 hPa 0 mm - 693 W/m² -
1788031014 36.11° C 37% 1017.2 hPa 0 mm - 716 W/m² -
1788030708 35.56° C 38% 1017.3 hPa 0 mm - 714 W/m² -
1788030403 35° C 39% 1017 hPa 0 mm - 333 W/m² -
1788030099 35.56° C 38% 1017.3 hPa 0 mm - 487 W/m² -
1788029798 35.56° C 38% 1017.3 hPa 0 mm - 448 W/m² -
1788029494 35.56° C 38% 1017.1 hPa 0 mm - 529 W/m² -
1788029206 35.56° C 39% 1017.2 hPa 0 mm - 343 W/m² -
1788028893 36.11° C 37% 1017.5 hPa 0 mm - 554 W/m² -
1788028588 36.11° C 37% 1017.5 hPa 0 mm - 611 W/m² -
1788028288 37.22° C 36% 1017.6 hPa 0 mm - 678 W/m² -
1788027984 36.11° C 36% 1017.5 hPa 0 mm - 710 W/m² -
1788027679 35.56° C 37% 1017.7 hPa 0 mm - 702 W/m² -
1788027378 35.56° C 39% 1017.9 hPa 0 mm - 762 W/m² -
1788027078 35° C 40% 1017.8 hPa 0 mm - 530 W/m² -
1788026773 34.44° C 41% 1017.9 hPa 0 mm - 471 W/m² -
1788026469 35° C 41% 1018.1 hPa 0 mm - 528 W/m² -
1788026169 35° C 41% 1018 hPa 0 mm - 708 W/m² -
1788025868 35° C 41% 1018.3 hPa 0 mm - 682 W/m² -
1788025557 35° C 42% 1018.5 hPa 0 mm - 743 W/m² -
1788025257 34.44° C 41% 1018.5 hPa 0 mm - 622 W/m² -
1788024952 34.44° C 43% 1018.4 hPa 0 mm - 730 W/m² -
1788024647 34.44° C 43% 1018.7 hPa 0 mm - 791 W/m² -

* Rain latest hour (hover to see other rain measurements)
** Current wind speed in m/s (hover to see current wind gust speed)